Regional Weather Roundup
Issued by NWS Albany, NY

Current Version | Previous Version | Text Only | Print | Product List | Glossary On
Versions: 1 2 3 4 5 6 7 8 9 10 11 12 13 14 15 16 17 18 19 20 21 22 23 24 25 26 27 28 29 30 31 32 33 34 35 36 37 38 39 40 41 42 43 44 45 46 47 48 49
000
ASUS41 KALY 040210
RWRALY

NEW YORK STATE HOURLY WEATHER ROUNDUP
NATIONAL WEATHER SERVICE ALBANY NY
900 PM EST TUE MAR 03 2015

NOTE: "FAIR" INDICATES FEW OR NO CLOUDS BELOW 12,000 FEET WITH NO
SIGNIFICANT WEATHER AND/OR NO OBSTRUCTIONS TO VISIBILITY.

NYZ032-033-038>043-046>054-057>066-NYZ062>081-040300-
EAST


CITY           SKY/WX    TMP DP  RH WIND       PRES   REMARKS
ALBANY         SLEET     25  20  81 S15G29    29.82F WCI  13
GLENS FALLS    MIX PCPN  24  20  84 S9        29.82F FOG     WCI  14
POUGHKEEPSIE   LGT SNOW  27  23  85 CALM      29.94F FOG
MONTGOMERY     MIX PCPN  28  25  88 S7        29.89F FOG     WCI  21
WHITE PLAINS   LGT RAIN  32  30  93 S9        29.95F VSB 1   WCI  24
ISLIP          LGT RAIN  34  31  88 S10       29.99F FOG     WCI  26
NEW YORK CITY  RAIN      34  30  85 S9        29.97F FOG     WCI  27
CENTRAL PARK   LGT RAIN  34  30  85 MISG      29.99F FOG
$$

NYZ005>009-017-018-044>046-055-056-040300-
CENTRAL


CITY           SKY/WX    TMP DP  RH WIND       PRES   REMARKS
FULTON         CLOUDY    29  21  72 S15G25    29.63F WCI  18
SYRACUSE       FLURRIES  27  23  85 S17G24    29.64F WCI  14
ROME           CLOUDY    23  21  92 SE9       29.75F WCI  13
ELMIRA         CLOUDY    29  23  78 SW10      29.70F WCI  20
BINGHAMTON     CLOUDY    24  20  84 S15       29.70F WCI  11
MONTICELLO     CLOUDY    21  19  93 E7        29.85F WCI  13
$$

NYZ026>034-041>043-040300-
NORTH


CITY           SKY/WX    TMP DP  RH WIND       PRES   REMARKS
WATERTOWN      FRZ RAIN  31  25  78 S18G31    29.55F WCI  19
FORT DRUM      NOT AVBL
MASSENA        SNOW      23  23 100 E7        29.60F VSB 1/4 WCI  15
SARANAC LAKE   CLOUDY    23  17  78 SW12G24   29.54F WCI  12
PLATTSBURGH    LGT SNOW  23  19  85 S12G29    29.67F FOG     WCI  12
$$

NYZ001>004-010>016-019>021-040300-
WEST


CITY           SKY/WX    TMP DP  RH WIND       PRES   REMARKS
NIAGARA FALLS  DRIZZLE   37  34  89 SW23G37   29.56S WCI  26
BUFFALO        LGT RAIN  37  35  92 SW32G47   29.58R FOG     WCI  24
DUNKIRK        LGT RAIN  39  37  92 W25G46    29.63S FOG     WCI  28
JAMESTOWN      CLOUDY    36  36 100 SW12      29.63R WCI  27
WELLSVILLE     FRZ RAIN  32  29  88 SW16G25   29.62F WCI  21
ROCHESTER      CLOUDY    35  29  78 SW21G30   29.56F WCI  24
PENN YAN       CLOUDY    29  21  72 S15G26    29.63F WCI  18
$$

             KEY
       WCI = WIND CHILL INDEX
       VSB = VISIBILITY
       HX  = HEAT INDEX
$$


USA.gov is the U.S. government's official web portal to all federal, state and local government web resources and services.